Paducah, KY

6:45 PM CDT on April 29, 2017 (GMT -0500)
Barkley Regional

Weather History for KPAH - March, 2011

Change the Weather History Date:

Friday, March 4, 2011

  Actual Average Record
Temperature  
Mean Temperature 61 °F 45 °F  
Max Temperature 66 °F 55 °F 79 °F (1983)
Min Temperature 55 °F 34 °F 5 °F (1960)
Degree Days  
Heating Degree Days 4 21  
Month to date heating degree days 62 84  
Since 1 July heating degree days 3516 3380  
Cooling Degree Days 0 0  
Month to date cooling degree days 0 0  
Year to date cooling degree days 0 0  
Growing Degree Days 10 (Base 50)    
Moisture  
Dew Point 50 °F    
Average Humidity 69    
Maximum Humidity 86    
Minimum Humidity 51    
Precipitation  
Precipitation 0.53 in 0.11 in 5.28 in (1964)
Month to date precipitation 0.53 0.45  
Year to date precipitation 7.46 8.04  
Snow  
Snow 0.00 in 0.10 in 8.10 in (2015)
Month to date snowfall 0.0 0.2  
Since 1 July snowfall 18.9 8.7  
Snow Depth 0.00 in    
Sea Level Pressure  
Sea Level Pressure 30.01 in    
Wind  
Wind Speed 13 mph (South)    
Max Wind Speed 22 mph    
Max Gust Speed 30 mph    
Visibility 8 miles    
Events Rain , Thunderstorm    
T = Trace of Precipitation, MM = Missing Value Source: NWS Daily Summary

Daily Weather History Graph

Daily Weather History Graph

Search for Another Location

Airport or City:

Trip Planner

Search our weather history database for the weather conditions in past years. The results will help you decide how hot, cold, wet, or windy it might be!

Date:

Astronomy

Mar. 04, 2011 Rise Set
Actual Time 6:22 AM CST 5:51 PM CST
Civil Twilight 5:56 AM CST 6:17 PM CST
Nautical Twilight 5:26 AM CST 6:48 PM CST
Astronomical Twilight 4:56 AM CST 7:18 PM CST
Moon 5:55 AM CST (3/4) 6:00 PM CST (3/4)
Length of Visible Light 12h 21m
Length of Day
11h 29m
Waning Crescent, 0% of the Moon is Illuminated
Mar 4
Waning Crescent
Mar 4
New
Mar 12
First Quarter
Mar 19
Full
Mar 26
Last Quarter

Hourly Weather History & Observations

Time (CST) Temp. Dew Point Humidity Pressure Visibility Wind Dir Wind Speed Gust Speed Precip Events Conditions
12:53 AM 57.9 °F 43.0 °F 58% 30.05 in 10.0 mi SSE 5.8 mph - N/A   Overcast
1:53 AM 57.9 °F 43.0 °F 58% 30.04 in 10.0 mi SSE 8.1 mph - N/A   Scattered Clouds
2:53 AM 60.1 °F 43.0 °F 53% 30.04 in 10.0 mi South 13.8 mph - N/A   Overcast
3:53 AM 60.1 °F 44.1 °F 55% 30.04 in 10.0 mi South 11.5 mph - N/A   Mostly Cloudy
4:53 AM 60.1 °F 44.1 °F 55% 30.04 in 10.0 mi South 11.5 mph 18.4 mph N/A   Mostly Cloudy
5:53 AM 57.9 °F 46.0 °F 65% 30.05 in 10.0 mi South 10.4 mph - 0.05 in   Overcast
6:50 AM 55.4 °F 46.4 °F 72% 30.07 in 4.0 mi SSE 15.0 mph - 0.10 in Rain Rain
6:53 AM 55.0 °F 46.0 °F 72% 30.06 in 4.0 mi SSE 13.8 mph - 0.13 in Rain Rain
7:02 AM 57.2 °F 44.6 °F 63% 30.07 in 9.0 mi South 15.0 mph - 0.00 in Rain Light Rain
7:53 AM 57.0 °F 43.0 °F 59% 30.08 in 10.0 mi South 13.8 mph 25.3 mph 0.00 in   Overcast
8:53 AM 57.9 °F 44.1 °F 60% 30.08 in 10.0 mi South 18.4 mph 23.0 mph 0.00 in   Overcast
9:53 AM 61.0 °F 46.9 °F 60% 30.08 in 10.0 mi South 16.1 mph 26.5 mph N/A   Overcast
10:53 AM 60.1 °F 48.0 °F 64% 30.08 in 10.0 mi South 11.5 mph 24.2 mph 0.00 in   Overcast
11:53 AM 57.9 °F 50.0 °F 75% 30.07 in 2.5 mi South 11.5 mph 18.4 mph 0.02 in Rain Rain
12:10 PM 57.2 °F 51.8 °F 82% 30.06 in 8.0 mi South 8.1 mph - 0.06 in Rain Light Rain
12:53 PM 61.0 °F 52.0 °F 72% 30.03 in 9.0 mi South 9.2 mph - 0.08 in Rain Light Rain
1:53 PM 60.1 °F 53.1 °F 78% 29.99 in 7.0 mi SSE 9.2 mph - 0.00 in Rain Light Rain
2:53 PM 66.0 °F 53.1 °F 63% 29.96 in 10.0 mi South 13.8 mph 19.6 mph 0.00 in   Mostly Cloudy
3:53 PM 64.9 °F 52.0 °F 63% 29.95 in 10.0 mi South 11.5 mph 20.7 mph 0.00 in   Overcast
4:53 PM 60.1 °F 54.0 °F 80% 29.97 in 5.0 mi South 6.9 mph - 0.04 in Rain Light Rain
5:28 PM 57.2 °F 53.6 °F 88% 29.98 in 2.0 mi South 10.4 mph 17.3 mph 0.04 in Rain Rain
5:39 PM 57.2 °F 53.6 °F 88% 29.98 in 4.0 mi South 12.7 mph 20.7 mph 0.06 in Rain Light Rain
5:53 PM 57.9 °F 54.0 °F 87% 29.99 in 10.0 mi South 12.7 mph 23.0 mph 0.06 in Rain Light Rain
6:45 PM 57.2 °F 53.6 °F 88% 29.97 in 10.0 mi South 17.3 mph 27.6 mph 0.01 in Rain , Thunderstorm Light Thunderstorms and Rain
6:53 PM 57.9 °F 52.0 °F 81% 29.96 in 10.0 mi South 17.3 mph 27.6 mph 0.01 in Rain , Thunderstorm Light Thunderstorms and Rain
7:21 PM 57.2 °F 53.6 °F 88% 29.98 in 6.0 mi South 9.2 mph 19.6 mph 0.01 in Rain Light Rain
7:42 PM 57.2 °F 53.6 °F 88% 29.98 in 8.0 mi South 10.4 mph 20.7 mph 0.06 in Rain Light Rain
7:53 PM 57.0 °F 53.1 °F 87% 29.97 in 8.0 mi South 12.7 mph 25.3 mph 0.06 in Rain Light Rain
8:53 PM 57.0 °F 53.1 °F 87% 29.95 in 10.0 mi South 18.4 mph 29.9 mph 0.03 in Rain Light Rain
9:11 PM 57.2 °F 53.6 °F 88% 29.95 in 10.0 mi South 18.4 mph 25.3 mph 0.00 in Rain Light Rain
9:37 PM 57.2 °F 53.6 °F 88% 29.94 in 10.0 mi South 19.6 mph 27.6 mph 0.00 in   Overcast
9:53 PM 57.9 °F 53.1 °F 84% 29.95 in 10.0 mi South 18.4 mph 25.3 mph 0.00 in   Overcast
10:53 PM 57.9 °F 54.0 °F 87% 29.94 in 5.0 mi South 17.3 mph 29.9 mph 0.00 in Rain Light Rain
11:46 PM 57.2 °F 53.6 °F 88% 29.92 in 9.0 mi South 16.1 mph 24.2 mph 0.05 in Rain Light Rain
11:53 PM 57.9 °F 54.0 °F 87% 29.92 in 10.0 mi South 17.3 mph 25.3 mph 0.05 in Rain Light Rain